Weather in Kakhib

Russia / Republic of Dagestan     42°25′44″N   46°35′47″E
temp.,
°C
wind,
m/s
gust,
m/s
humid.,
%
clouds,
%
prec.,
mm/h
press.,
hPa
HPBL,
m
6 may, thu
thu600:00−2sw228056 0.0 102013
03:00−3sw227928 0.0 102017
06:000sw228015 0.0 101945
09:00+6ssw12777 0.0 1015430
12:00+9ssw116411 0.0 10131002
15:00+10sw225710 0.0 10121246
18:00+8sw22755 0.0 1013100
21:00+3sw32730 0.0 101629
7 may, fri
fri700:00+3sw3261100 0.0 101622
03:00+2sw3259100 0.0 101620
06:00+4sw2258100 0.0 101629
09:00+10n215384 0.0 1015751
12:00+12nne224769 0.0 10141830
15:00+11nne215993 0.4 10151204
18:00+7nnw3388100 1.8 1018391
21:00+6sw118594 2.9 1020104
8 may, sat
sat800:00+5ssw118747 0.4 102013
03:00+4sw11876 0.4 101911
06:00+6ssw11794 0.0 101961
09:00+12ese12594 0.0 1016977
12:00+16ene024718 0.0 10141723
15:00+16sw124419 0.0 10121817
18:00+13ssw126212 0.0 1014184
21:00+8ssw337395 0.0 101652
9 may, sun
sun900:00+7ssw3366100 0.0 101464
03:00+6ssw33680 0.0 101351
06:00+8sw336854 0.0 101181
09:00+15sw2343100 0.0 1008870
12:00+17sw344271 0.0 10062053
15:00+16w244661 0.3 10071673
18:00+14nnw226359 0.3 1008117
21:00+8nw459699 2.4 1013234
10 may, mon
mon1000:00+3nw5696100 0.1 1016347
03:000nw4594100 0.3 1019367
06:00−2nw3490100 0.6 1021337
09:00−2nnw2295100 5.2 1021461
12:00−3nw2296100 13.7 1023206
15:00−1nnw2310087 16.3 1021366
18:00−1ene119792 0.3 1022178
21:00−7sw22925 0.3 102713